Weather History for Ord, NE

Change the Weather History Date:

Saturday, February 16, 2013

  Actual Average Record
Temperature  
Mean Temperature 31 °F 28 °F  
Max Temperature 51 °F 40 °F 66 °F (2011)
Min Temperature 10 °F 15 °F 1 °F (2001)
Degree Days  
Heating Degree Days 34    
Month to date heating degree days 512  
Cooling Degree Days 0    
Month to date cooling degree days 0  
Year to date cooling degree days 0  
Moisture  
Dew Point 21 °F    
Average Humidity 67    
Maximum Humidity 92    
Minimum Humidity 42    
Precipitation  
Precipitation T in 0.01 in 0.62 in (1932)
Month to date precipitation 0.84 0.28  
Year to date precipitation 0.98 0.65  
Sea Level Pressure  
Sea Level Pressure 30.10 in    
Wind  
Wind Speed 7 mph (SW)    
Max Wind Speed 21 mph    
Max Gust Speed 25 mph    
Visibility 8 miles    
Events Snow    
T = Trace of Precipitation, MM = Missing Value Source: NWS Daily Summary

Daily Weather History Graph

Daily Weather History Graph

Search for Another Location

Airport:

Trip Planner

Search our weather history database for the weather conditions in past years. The results will help you decide how hot, cold, wet, or windy it might be!

Date:

Astronomy

Feb. 16, 2013 Rise Set
Actual Time 7:29 AM CST 6:10 PM CST
Civil Twilight 7:00 AM CST 6:39 PM CST
Nautical Twilight 6:28 AM CST 7:11 PM CST
Astronomical Twilight 5:56 AM CST 7:43 PM CST
Moon 10:37 AM CST (2/16) 12:17 AM CST (2/16)
Length of Visible Light 11h 38m
Length of Day
10h 41m
Waxing Crescent, 39% of the Moon is Illuminated
Feb 16
Waxing Crescent
Feb 17
First Quarter
Feb 25
Full
Mar 4
Last Quarter
Mar 11
New

Hourly Weather History & Observations

Time (CST) Temp. Windchill Dew Point Humidity Pressure Visibility Wind Dir Wind Speed Gust Speed Precip Events Conditions
12:53 AM 10.9 °F 1.4 °F 8.1 °F 88% 30.38 in 10.0 mi SSW 5.8 mph - N/A   Clear
1:53 AM 12.0 °F 5.9 °F 8.1 °F 84% 30.35 in 10.0 mi SSW 3.5 mph - N/A   Clear
2:53 AM 14.0 °F 6.5 °F 10.0 °F 84% 30.32 in 10.0 mi South 4.6 mph - N/A   Scattered Clouds
3:53 AM 18.0 °F 9.8 °F 14.0 °F 84% 30.29 in 10.0 mi SSW 5.8 mph - N/A   Mostly Cloudy
4:53 AM 19.0 °F 10.0 °F 14.0 °F 81% 30.24 in 10.0 mi SSW 6.9 mph - N/A   Overcast
5:53 AM 21.0 °F 13.4 °F 15.1 °F 78% 30.21 in 10.0 mi SSW 5.8 mph - N/A   Overcast
6:50 AM 21.2 °F 10.1 °F 17.6 °F 86% 30.08 in 2.5 mi SSW 10.4 mph - 0.00 in Snow Light Snow
6:53 AM 21.9 °F 10.4 °F 17.1 °F 82% 30.17 in 2.0 mi SSW 11.5 mph - 0.00 in Snow Light Snow
7:03 AM 21.2 °F 8.9 °F 17.6 °F 86% 30.07 in 1.5 mi SSW 12.7 mph - 0.00 in Snow Light Snow
7:15 AM 21.2 °F 8.9 °F 19.4 °F 93% 30.06 in 2.5 mi SSW 12.7 mph - 0.00 in Snow Light Snow
7:25 AM 23.0 °F 11.7 °F 19.4 °F 86% 30.06 in 2.5 mi SSW 11.5 mph - 0.00 in Snow Light Snow
7:44 AM 21.2 °F 12.6 °F 19.4 °F 93% 30.05 in 4.0 mi SSE 6.9 mph - 0.00 in Snow Light Snow
7:53 AM 21.9 °F 13.4 °F 19.0 °F 89% 30.14 in 9.0 mi SSE 6.9 mph - 0.00 in   Overcast
8:23 AM 23.0 °F 15.8 °F 19.4 °F 86% 30.05 in 1.8 mi South 5.8 mph - 0.00 in Snow Light Snow
8:34 AM 24.8 °F 19.1 °F 19.4 °F 80% 30.05 in 3.0 mi South 4.6 mph - 0.00 in Snow Light Snow
8:53 AM 24.1 °F 17.0 °F 19.9 °F 84% 30.15 in 5.0 mi SSE 5.8 mph - 0.00 in Snow Light Snow
9:53 AM 26.1 °F 17.6 °F 19.9 °F 78% 30.13 in 10.0 mi South 8.1 mph - 0.00 in   Overcast
10:53 AM 28.9 °F 19.8 °F 21.9 °F 75% 30.11 in 10.0 mi South 10.4 mph - N/A   Overcast
11:53 AM 35.1 °F 28.6 °F 25.0 °F 67% 30.08 in 10.0 mi SW 8.1 mph - N/A   Overcast
12:53 PM 41.0 °F 38.0 °F 25.0 °F 53% 30.04 in 10.0 mi NW 4.6 mph - N/A   Mostly Cloudy
1:53 PM 46.9 °F - 27.0 °F 46% 30.01 in 10.0 mi NW 8.1 mph - N/A   Clear
2:53 PM 50.0 °F - 28.9 °F 44% 29.99 in 10.0 mi NW 12.7 mph 21.9 mph N/A   Clear
3:53 PM 50.0 °F - 30.0 °F 46% 29.98 in 10.0 mi NW 17.3 mph - N/A   Clear
4:53 PM 46.9 °F - 30.0 °F 52% 29.99 in 10.0 mi NW 13.8 mph - N/A   Mostly Cloudy
5:53 PM 41.0 °F 38.0 °F 28.9 °F 62% 30.01 in 10.0 mi NW 4.6 mph - N/A   Scattered Clouds
6:53 PM 34.0 °F 27.2 °F 27.0 °F 75% 30.01 in 10.0 mi NW 8.1 mph - N/A   Mostly Cloudy
7:53 PM 35.1 °F 32.2 °F 28.0 °F 76% 30.00 in 10.0 mi SW 3.5 mph - N/A   Clear
8:53 PM 28.9 °F - 25.0 °F 85% 30.01 in 10.0 mi Calm Calm - N/A   Clear
9:53 PM 27.0 °F - 24.1 °F 89% 30.01 in 10.0 mi Calm Calm - N/A   Clear
10:53 PM 28.0 °F - 24.1 °F 85% 30.00 in 10.0 mi Calm Calm - N/A   Clear
11:53 PM 26.1 °F - 23.0 °F 88% 29.99 in 10.0 mi Calm Calm - N/A   Clear